Weather Roundup
Issued by NWS

Home | Current Version | Previous Version | Text Only | Print | Product List | Glossary On
Versions: 1 2 3 4 5 6 7 8 9 10 11 12 13 14 15 16 17 18 19 20 21 22 23 24 25 26 27 28 29 30 31 32 33 34 35 36 37 38 39 40 41 42 43 44 45 46 47 48 49 50
000
NZUS93 KARX 262310
HRRWXR

CURRENT HOURLY OBSERVATIONS ACROSS
MUCH OF THE UPPER MISSISSIPPI VALLEY
NATIONAL WEATHER SERVICE LA CROSSE WI
500 PM CST THU FEB 26 2015


...SOUTHEAST MINNESOTA...


CITY           SKY/WX    TMP DP  RH WIND       PRES   REMARKS
ROCHESTER      PTCLDY     4  -7  60 NW16      30.38R WCI -15
ROCHESTER/MAYO FAIR       7  -9  48 NW15      30.39R WCI -11
WINONA         CLEAR     10  -4  52 NW12      30.43S WCI  -4
AUSTIN         CLEAR      3  -8  60 NW12      30.40S WCI -13
ALBERT LEA     CLEAR      3  -6  66 NW7       30.42R WCI  -9
DODGE CENTER   CLEAR      3  -6  66 NW13      30.38S WCI -14
PRESTON        CLEAR      4  -8  57 NW8       30.38S WCI  -9
OWATONNA       CLEAR      5  -8  56 NW13      30.42S WCI -12
FARIBAULT      CLEAR      7  -6  56 W10       30.43S WCI  -8
$$

...ELSEWHERE IN MINNESOTA...


CITY           SKY/WX    TMP DP  RH WIND       PRES   REMARKS
MINNEAPOLIS    PTCLDY     9  -7  48 NW14      30.44R WCI  -7
INTNL FALLS    CLEAR      3 -14  45 W12       30.37F WCI -13
DULUTH         CLEAR      8 -11  41 NW14      30.32R WCI  -8
RED WING       CLEAR     10  -9  40 N5        30.42S WCI   2
REDWOOD FALLS  CLOUDY     3  -5  69 NW13G22   30.49S HAZE    WCI -14
MANKATO        CLOUDY     3  -6  66 NW17      30.45S WCI -17
FAIRMONT       CLOUDY     1  -6  71 NW13      30.44S WCI -16
$$

...SOUTHWEST WISCONSIN...


CITY           SKY/WX    TMP DP  RH WIND       PRES   REMARKS
LA CROSSE      MOCLDY    11  -5  48 NW12      30.41R WCI  -3
PRAIRIE DU CHI MOCLDY    11  -5  47 NW12      30.40R WCI  -3
BOSCOBEL       MOCLDY    12  -5  46 NW12      30.39R WCI  -2
LONE ROCK      MOCLDY    12  -6  44 N10       30.37R WCI  -1
PLATTEVILLE    CLEAR     11  -5  49 W10       30.34R WCI  -3
FORT MC COY    CLEAR     10  -6  48 NW10      30.39R WCI  -4
CAMP DOUGLAS   PTCLDY    12  -6  44 N12       30.34R WCI  -2
VIROQUA        FAIR       6  -5  59 NW12      30.34R WCI  -9
WIS DELLS      MOCLDY    11  -7  44 NW9       30.32R WCI  -1
$$

...ELSEWHERE IN WISCONSIN...


CITY           SKY/WX    TMP DP  RH WIND       PRES   REMARKS
MILWAUKEE      PTCLDY    13  -7  40 NW10      30.32R WCI   0
MADISON        MOCLDY    12  -6  44 NW6       30.33R WCI   3
GREEN BAY      CLEAR     13  -4  46 W5        30.31S WCI   5
EAU CLAIRE     CLEAR      9 -10  42 VRB7      30.39R WCI  -2
BLACK RVR FLS  FAIR      10  -9  41 NW8       30.38R WCI  -1
MEDFORD        PTCLDY     8  -7  51 NW9       30.27S WCI  -6
WAUSAU         CLEAR     10  -8  44 NW9       30.27S WCI  -3
WIS RAPIDS     CLEAR      9  -9  44 NW12      30.34R WCI  -6
MARSHFIELD     CLEAR      8  -6  52 NW13      30.31R WCI  -8
RICE LAKE      CLEAR      9 -10  42 W8        30.38S WCI  -3
$$

...NORTHEAST IOWA...


CITY           SKY/WX    TMP DP  RH WIND       PRES   REMARKS
DECORAH        CLEAR      5  -8  56 N12       30.38R WCI -11
MASON CITY     CLEAR      2  -7  66 NW12      30.44R WCI -15
CHARLES CITY   MOCLDY     3  -6  66 NW13      30.43R WCI -14
OELWEIN        CLEAR      3  -6  66 NW15      30.41R WCI -15
$$

...ELSEWHERE IN IOWA...


CITY           SKY/WX    TMP DP  RH WIND       PRES   REMARKS
DES MOINES     MOSUNNY    9  -4  55 NW17      30.48R WCI  -9
IOWA CITY      CLEAR      8  -3  61 NW17      30.45R WCI -10
FORT DODGE     MOSUNNY    3  -8  60 N8        30.48R WCI -10
$$

...NORTHERN ILLINOIS...


CITY           SKY/WX    TMP DP  RH WIND       PRES   REMARKS
CHICAGO-OHARE  PTCLDY    13  -2  51 NW13      30.30R WCI  -2
CHICAGO-MIDWAY PTCLDY    19   1  45 NW15      30.31R WCI   5
MOLINE         FAIR      12  -3  51 NW12      30.39R WCI  -2
ROCKFORD       CLEAR     12  -4  48 N12       30.35R WCI  -2
PEORIA         CLOUDY    14   5  67 NW9       30.37R WCI   2
$$

NOTE: "FAIR" INDICATES FEW OR NO CLOUDS BELOW 12,000 FEET WITH NO
SIGNIFICANT WEATHER AND/OR OBSTRUCTIONS TO VISIBILITY. WIND
SPEEDS ARE IN MILES-PER-HOUR.



USA.gov is the U.S. government's official web portal to all federal, state and local government web resources and services.